TimeEDT,TemperatureF,Dew PointF,Humidity,Sea Level PressureIn,VisibilityMPH,Wind Direction,Wind SpeedMPH,Gust SpeedMPH,PrecipitationIn,Events,Conditions,WindDirDegrees,DateUTC
12:40 AM,41.0,37.4,87,29.99,10.0,North,10.4,-,N/A,,Overcast,350,2012-10-29 04:40:00
12:53 AM,41.0,37.0,86,30.00,10.0,NNW,6.9,-,N/A,,Overcast,340,2012-10-29 04:53:00
1:12 AM,41.0,37.4,87,29.99,10.0,North,8.1,-,N/A,,Overcast,350,2012-10-29 05:12:00
1:22 AM,41.0,37.4,87,29.99,10.0,NNW,6.9,-,N/A,,Overcast,340,2012-10-29 05:22:00
1:53 AM,41.0,37.0,86,29.99,10.0,NW,4.6,-,N/A,,Overcast,320,2012-10-29 05:53:00
2:53 AM,42.1,36.0,79,29.98,10.0,NW,6.9,-,N/A,,Overcast,320,2012-10-29 06:53:00
3:53 AM,41.0,33.1,73,29.97,10.0,NNW,8.1,17.3,N/A,,Overcast,330,2012-10-29 07:53:00
4:53 AM,39.9,32.0,73,29.96,10.0,NNW,10.4,-,N/A,,Overcast,330,2012-10-29 08:53:00
5:53 AM,39.9,32.0,73,29.97,10.0,NNW,11.5,-,N/A,,Overcast,340,2012-10-29 09:53:00
6:53 AM,39.0,32.0,76,29.96,10.0,NW,9.2,-,N/A,,Overcast,320,2012-10-29 10:53:00
7:06 AM,39.2,32.0,75,29.95,10.0,NW,8.1,-,N/A,,Overcast,320,2012-10-29 11:06:00
7:53 AM,37.9,30.9,76,29.97,10.0,NW,11.5,16.1,N/A,,Overcast,320,2012-10-29 11:53:00
8:53 AM,37.9,30.0,73,29.98,10.0,NW,11.5,17.3,N/A,,Overcast,320,2012-10-29 12:53:00
9:53 AM,37.9,30.0,73,29.97,10.0,NNW,10.4,20.7,N/A,,Overcast,330,2012-10-29 13:53:00
10:53 AM,37.9,30.9,76,29.97,10.0,NW,11.5,17.3,N/A,,Overcast,320,2012-10-29 14:53:00
11:53 AM,39.0,30.9,73,29.96,10.0,NW,13.8,18.4,N/A,,Overcast,320,2012-10-29 15:53:00
12:53 PM,39.0,32.0,76,29.95,10.0,NW,9.2,18.4,N/A,,Overcast,320,2012-10-29 16:53:00
1:53 PM,39.9,33.1,77,29.93,10.0,NW,12.7,20.7,N/A,,Overcast,310,2012-10-29 17:53:00
2:53 PM,39.0,35.1,86,29.91,10.0,WNW,10.4,-,0.00,Rain,Light Rain,300,2012-10-29 18:53:00
3:53 PM,39.9,36.0,86,29.89,10.0,NW,12.7,21.9,0.00,Rain,Light Rain,310,2012-10-29 19:53:00
4:53 PM,39.9,35.1,83,29.88,10.0,NW,12.7,20.7,0.01,,Overcast,320,2012-10-29 20:53:00
5:53 PM,42.1,33.1,70,29.85,10.0,NW,12.7,18.4,0.00,,Overcast,320,2012-10-29 21:53:00
6:53 PM,39.9,34.0,79,29.85,10.0,NW,16.1,24.2,0.00,Rain,Light Rain,320,2012-10-29 22:53:00
7:53 PM,37.9,34.0,86,29.85,10.0,NNW,13.8,18.4,0.00,Rain,Light Rain,330,2012-10-29 23:53:00
8:53 PM,39.0,30.9,73,29.83,10.0,NW,6.9,-,0.00,,Overcast,310,2012-10-30 00:53:00
9:53 PM,39.9,27.0,60,29.81,10.0,NW,16.1,20.7,N/A,,Overcast,310,2012-10-30 01:53:00
10:53 PM,41.0,26.1,55,29.78,10.0,NNW,17.3,29.9,N/A,,Overcast,330,2012-10-30 02:53:00
11:53 PM,41.0,27.0,57,29.76,10.0,NNW,10.4,23.0,N/A,,Overcast,330,2012-10-30 03:53:00